Wind_Speed
23 25 23 22 21 22 21 18 16 16 14 12 10 8 8 9 6 8 16 17 15 16 15 14 14 14 14 14 15 15 15 15 14 13 12 11 11 11 11 10 9 9 9 9 10 10 10 12 12 13 13 13 13 13 13 14 15 15 16 16 16 18 19 16 11 12 15 19 22 21 23 27 26 23 24 28 33 33 34 37 37 35 34 36 38
24 25 24 21 21 22 21 17 16 17 15 12 10 8 8 8 6 13 18 17 16 16 15 15 14 14 15 15 15 15 15 15 14 13 11 10 11 11 11 10 8 8 9 9 10 10 11 12 13 13 12 12 12 12 12 14 14 14 15 15 16 17 18 18 15 14 17 18 20 21 24 26 24 23 24 27 32 34 33 34 36 34 33 35 38
25 24 24 21 21 23 20 16 17 17 14 12 10 9 8 7 8 17 19 17 17 16 15 15 15 15 15 15 15 15 15 15 14 13 11 10 10 10 10 9 8 8 9 9 10 10 11 12 12 12 12 11 12 12 12 14 14 14 15 15 16 17 17 19 17 16 17 17 17 20 23 25 23 23 23 25 29 33 31 31 35 36 34 35 37
24 22 23 23 24 23 19 18 19 17 13 13 11 9 8 6 12 20 20 18 18 16 15 15 15 15 15 15 15 15 14 14 14 13 12 11 10 10 10 9 9 9 9 10 10 11 11 12 11 12 11 11 11 11 12 13 14 14 14 13 14 15 17 18 17 16 16 16 17 18 21 23 23 22 24 25 27 29 29 33 36 36 34 34 36
26 23 24 26 26 23 19 20 20 16 15 14 12 11 9 8 16 22 20 18 18 17 17 16 15 15 15 15 15 14 14 14 13 13 12 12 11 10 9 9 9 9 9 10 11 11 11 11 11 11 11 10 11 11 11 13 14 14 14 13 12 15 16 17 17 18 16 15 16 17 18 20 22 22 23 27 28 27 29 34 36 35 35 34 33
27 23 26 27 24 22 21 22 19 17 16 15 14 14 11 11 19 22 20 19 18 18 18 17 16 16 15 15 14 14 14 13 13 13 13 12 11 10 9 9 9 9 10 10 11 11 11 11 11 10 10 10 10 10 10 12 13 13 14 13 14 16 16 16 17 18 17 15 15 17 18 19 20 22 24 27 28 29 31 34 35 34 35 35 33
26 25 29 27 23 23 24 22 19 18 17 16 16 15 12 14 21 23 21 19 19 18 18 17 17 16 15 15 15 14 14 14 14 14 13 12 11 10 9 9 9 9 10 10 11 11 11 11 10 10 9 9 9 9 10 11 13 12 13 14 15 16 16 16 16 16 16 16 16 17 18 18 19 23 26 26 27 30 32 35 36 35 35 34 32
26 27 29 25 23 24 23 21 19 19 18 17 17 16 13 17 23 23 22 20 19 19 18 18 18 17 16 16 15 14 14 15 15 15 14 12 11 10 9 9 10 10 10 11 10 11 10 10 10 9 8 8 8 9 9 10 11 11 12 13 15 17 18 17 16 15 15 16 16 17 18 18 19 23 26 26 28 31 33 34 35 35 36 35 31
27 28 27 25 25 24 22 21 21 20 18 18 19 16 14 20 25 23 22 21 19 19 19 18 18 17 17 16 15 15 15 16 16 16 14 13 11 11 10 10 10 10 11 11 11 11 10 9 9 8 7 7 7 8 8 9 11 11 12 13 15 17 18 19 17 17 17 16 16 18 18 18 21 23 25 26 29 33 34 33 32 34 35 34 30
27 28 28 27 27 23 22 22 21 20 20 20 19 17 16 23 26 23 22 21 20 20 19 19 18 18 18 17 16 15 16 17 17 16 15 13 12 11 11 11 11 11 11 11 10 10 10 9 8 7 7 6 6 7 8 9 10 11 12 13 15 16 18 19 19 21 21 17 16 18 18 20 22 22 23 26 29 32 33 33 33 34 35 34 32
27 28 30 30 27 24 23 22 21 20 20 20 20 18 19 24 25 23 23 22 21 21 20 20 19 19 18 18 17 16 17 17 16 15 15 14 13 11 11 12 12 11 11 10 10 10 9 9 8 7 6 6 6 7 8 9 10 12 12 13 15 16 18 19 20 22 23 21 19 17 18 21 23 22 22 26 30 32 32 31 31 34 35 34 35
27 28 29 29 27 25 24 22 21 21 20 20 20 19 21 25 26 25 24 23 22 22 21 21 20 19 19 18 17 16 17 17 16 15 14 14 13 12 11 12 12 10 10 9 7 7 8 8 8 8 6 6 7 7 8 9 10 11 11 13 15 16 17 19 20 22 23 24 22 18 19 23 24 23 24 27 30 31 31 30 30 32 33 33 34
28 30 30 28 27 27 25 22 22 21 20 20 20 20 22 26 27 25 24 23 22 22 22 22 21 21 20 18 17 17 17 16 16 15 14 14 14 12 10 11 11 10 9 9 7 6 6 6 6 7 6 6 7 7 7 7 8 9 11 13 15 16 17 18 20 21 23 24 23 21 22 25 26 25 26 28 29 30 31 30 29 30 32 32 32
30 31 29 27 27 27 25 23 23 22 21 21 21 21 24 27 27 26 24 23 23 23 23 23 22 21 20 19 18 17 17 16 16 15 15 14 14 13 10 9 10 9 9 9 8 7 8 7 5 5 6 6 6 5 6 6 7 9 11 11 12 15 17 19 20 21 22 23 23 24 24 26 26 26 26 27 27 30 32 30 28 30 32 31 30
32 31 29 28 28 28 25 25 24 22 21 21 21 22 26 29 28 27 25 24 23 23 24 24 23 22 21 20 19 18 17 17 16 15 15 14 14 14 10 8 9 8 8 9 8 7 8 8 7 6 6 5 5 4 5 6 6 8 8 8 10 12 13 15 16 18 20 21 22 23 24 24 25 25 26 27 27 31 32 28 26 28 30 29 28
32 32 31 30 29 28 26 25 24 23 22 22 22 24 28 30 29 27 26 24 23 23 24 24 23 22 22 21 20 19 18 17 16 16 16 15 14 13 10 8 8 8 8 8 7 7 7 8 7 6 6 5 4 3 3 4 6 6 6 7 9 9 10 12 14 16 18 19 20 21 21 22 22 23 26 29 30 33 32 26 25 28 28 28 29
33 32 31 31 30 29 28 26 25 25 23 22 23 25 28 30 29 28 26 24 24 24 24 24 23 23 23 22 21 19 18 17 17 17 16 16 15 12 9 8 9 8 9 9 7 7 7 8 7 6 5 4 3 2 2 2 4 4 4 6 7 7 9 11 14 15 17 18 19 19 19 20 22 23 27 30 32 34 30 25 26 28 28 28 29
33 32 31 30 30 30 29 28 27 25 24 23 24 25 28 30 29 27 25 24 23 23 23 24 23 23 23 22 21 20 18 18 18 17 17 17 15 14 12 10 10 10 10 10 9 8 8 8 8 7 6 4 3 1 0 1 3 3 4 5 6 7 9 11 13 15 16 16 18 19 20 22 24 25 27 29 31 33 29 26 27 27 27 28 29
31 29 29 29 30 30 29 28 26 24 23 24 23 24 27 29 28 26 24 23 22 22 23 24 23 23 23 22 22 21 19 18 18 17 18 18 17 16 15 13 14 14 13 12 11 10 9 7 8 7 6 5 3 2 2 2 2 3 4 5 6 8 11 13 14 15 16 17 19 20 20 21 22 24 26 28 30 31 30 28 27 25 26 27 27
32 31 31 32 31 29 28 27 24 23 23 22 22 24 27 28 27 25 24 22 22 22 23 24 24 23 23 23 22 20 19 18 18 18 19 18 18 17 15 13 15 16 15 13 12 11 9 8 7 7 6 5 4 3 3 3 3 4 5 6 7 9 11 13 14 16 17 18 19 18 17 18 19 20 23 26 28 29 30 31 30 27 25 25 26
33 33 32 31 29 28 28 26 23 22 22 21 21 24 26 27 26 25 24 23 23 23 23 24 24 24 23 23 22 21 20 19 18 19 19 19 19 18 17 15 15 15 14 13 12 11 9 8 7 7 6 5 4 3 3 3 4 5 5 6 8 10 12 14 15 16 17 16 16 16 16 17 18 19 21 24 26 28 29 31 31 29 26 24 25
31 30 29 28 28 28 28 25 23 22 21 21 22 24 25 26 26 24 23 23 23 23 24 24 24 24 23 23 22 22 21 21 20 20 20 19 19 19 19 19 17 14 13 13 13 11 9 10 9 8 7 6 5 4 3 3 4 5 6 8 10 11 13 14 15 15 15 14 15 15 16 17 18 19 20 22 25 27 29 31 32 31 28 25 23
29 30 29 28 28 28 27 24 23 22 22 22 23 24 26 26 26 25 24 24 24 24 24 25 24 24 24 24 24 24 23 22 22 21 20 20 20 19 19 20 19 16 15 14 13 12 12 13 11 8 7 6 5 4 4 4 5 6 7 8 10 12 14 15 15 14 14 14 14 15 16 17 18 19 20 22 25 28 30 31 33 32 29 26 23
30 30 30 29 27 27 25 24 23 24 24 24 24 25 26 27 27 26 24 23 24 24 25 26 25 25 25 25 25 24 24 24 23 22 21 21 20 20 19 19 18 18 17 15 13 13 14 14 11 9 7 6 5 5 5 5 6 7 8 9 10 13 13 13 12 12 13 14 14 15 16 16 17 18 20 22 24 25 26 30 33 33 31 28 25
29 29 30 29 27 26 25 24 25 25 25 26 26 26 26 27 28 27 25 24 24 25 26 27 26 26 26 26 26 26 25 24 23 22 21 21 21 20 19 18 18 18 18 17 15 15 15 13 10 9 8 6 6 6 6 6 7 7 8 9 10 11 10 10 10 12 12 13 13 14 15 15 16 18 20 22 22 22 24 28 31 32 32 31 27
27 29 30 29 28 28 26 26 27 26 25 25 26 26 26 27 29 28 26 26 26 25 25 27 27 27 27 26 27 27 25 23 22 21 21 21 21 20 18 18 18 18 18 18 16 15 14 12 11 10 8 7 7 7 7 7 8 7 8 10 9 7 7 8 10 11 11 11 12 13 14 14 16 18 19 21 22 23 24 26 27 28 29 29 28
27 28 28 28 29 29 27 27 28 27 27 27 27 27 27 28 30 30 28 28 27 25 25 26 27 28 28 28 27 26 23 22 22 22 22 21 20 19 18 17 18 18 18 17 15 14 13 12 11 10 8 8 8 7 7 7 7 7 7 7 7 6 7 9 10 10 10 10 11 12 13 14 15 17 19 21 22 24 24 24 25 26 26 26 26
26 26 27 28 28 28 27 28 28 28 29 29 29 30 29 30 31 31 29 29 29 27 26 26 28 29 29 28 27 25 23 23 24 23 22 21 20 19 18 17 17 18 17 16 15 15 13 12 11 10 9 8 8 8 7 7 6 6 6 6 6 8 9 10 11 10 9 9 10 11 13 14 15 16 19 20 22 24 24 24 24 25 26 25 25
26 26 27 27 27 28 28 28 29 29 29 29 30 30 29 29 30 29 28 28 27 26 25 25 27 28 27 26 26 25 24 25 24 23 21 20 20 19 18 17 17 17 16 16 15 15 13 11 11 10 9 9 9 8 8 7 7 7 7 7 7 7 8 9 9 9 8 8 9 11 12 13 14 16 18 20 21 22 23 23 24 26 27 26 26
28 28 28 28 27 28 30 30 29 29 28 28 29 29 27 27 26 26 26 25 23 22 21 21 22 24 26 26 25 23 23 23 22 20 19 18 18 18 18 17 17 17 16 15 15 14 13 12 12 11 11 11 10 10 9 8 8 8 8 8 7 7 8 8 8 8 8 8 9 10 12 13 14 16 17 19 22 22 22 22 24 25 27 27 28
30 30 29 28 27 28 30 30 29 28 27 28 29 29 28 27 26 25 25 23 21 20 19 18 19 20 22 24 23 22 22 21 18 17 17 18 18 18 18 17 17 16 15 15 15 15 14 13 12 12 12 12 11 11 10 10 10 9 9 8 8 8 8 8 8 8 9 9 9 10 12 13 14 16 18 21 24 23 21 21 22 24 24 25 28
28 28 28 28 27 28 30 30 29 29 29 29 30 29 28 27 27 26 25 22 21 20 19 18 17 17 19 21 23 23 22 19 16 17 18 18 18 17 17 16 16 15 15 15 15 15 14 13 13 13 13 13 13 12 12 11 11 10 10 9 9 8 8 9 9 10 10 10 10 11 12 13 15 18 20 22 23 21 21 22 22 21 22 23 27
26 25 26 28 28 29 30 30 29 29 29 29 30 30 29 29 29 28 27 26 24 23 21 20 18 17 18 21 22 21 20 18 17 18 19 18 18 17 16 16 16 15 15 15 15 15 14 14 14 14 14 14 13 13 12 12 11 11 10 10 10 9 9 10 11 11 11 10 11 12 12 13 16 18 19 21 20 20 21 22 20 20 21 22 25
23 22 23 25 27 28 29 29 29 28 27 28 29 29 28 29 29 29 30 30 29 28 26 24 22 21 21 22 22 21 21 21 20 20 20 20 19 18 17 17 17 16 16 16 17 17 16 15 15 15 15 14 14 13 13 12 11 11 11 11 10 10 10 10 11 11 11 11 12 12 12 14 16 17 18 20 20 20 23 23 20 20 21 22 25
23 21 21 23 26 27 27 28 28 28 28 28 27 27 27 28 29 30 31 31 31 31 30 29 26 25 24 24 24 24 25 24 24 23 22 21 20 20 20 20 20 19 18 18 18 17 16 16 16 16 15 15 14 13 13 12 11 11 11 11 10 10 11 11 12 12 12 12 12 12 13 14 16 16 18 19 18 19 21 20 19 22 25 26 27
24 23 22 23 24 25 26 27 27 27 27 27 26 26 27 27 28 29 30 30 30 30 29 28 27 26 26 27 27 27 28 28 26 25 24 23 22 23 23 22 21 20 19 18 18 17 16 17 17 16 16 15 14 13 12 12 11 11 11 11 11 11 11 12 12 12 13 13 13 14 14 15 16 17 18 19 19 19 19 20 22 26 28 28 29
23 22 21 21 22 23 24 25 25 24 25 26 26 27 26 26 27 28 29 29 28 28 28 28 27 27 28 28 28 29 30 30 28 28 27 26 25 25 24 23 22 21 20 19 18 17 17 17 18 18 18 16 15 14 13 12 11 11 11 11 11 12 13 14 15 15 16 16 16 16 15 15 16 16 17 18 19 20 20 22 25 28 28 28 27
22 21 21 22 23 23 23 23 23 24 25 26 26 26 26 26 27 28 28 28 28 27 28 28 28 28 29 29 29 30 31 31 31 31 30 29 29 28 27 25 24 22 21 19 18 18 17 17 18 18 18 17 15 14 13 13 12 12 12 12 12 13 15 16 17 17 18 18 17 15 14 14 14 14 15 17 19 21 23 24 26 27 28 27 25
23 23 22 21 22 23 24 24 25 25 26 26 26 26 27 28 28 28 27 27 28 28 28 26 26 27 29 29 29 31 33 34 34 34 33 32 31 30 28 26 25 24 22 20 18 18 18 17 18 19 18 17 16 15 14 14 13 13 13 14 14 14 16 16 16 15 15 15 15 14 13 14 14 15 16 17 18 21 23 24 25 26 27 26 25
24 24 22 21 22 24 25 25 26 25 26 26 27 27 28 28 27 27 26 25 25 26 26 24 24 27 29 28 29 33 35 35 35 34 34 33 32 30 28 27 26 25 24 22 20 19 19 18 18 18 18 17 16 16 15 15 15 14 15 15 16 16 16 16 16 16 15 15 15 15 15 15 15 16 16 17 18 21 23 25 25 26 26 26 27
24 24 22 22 23 25 25 24 24 23 24 25 26 27 27 26 26 26 24 22 22 24 25 24 25 27 27 27 29 32 33 33 33 33 34 33 31 28 27 27 26 25 25 23 21 20 20 19 18 17 17 17 16 16 15 15 15 15 16 17 18 18 17 16 17 17 16 16 16 16 16 16 17 17 18 19 20 22 23 24 24 24 24 24 26
23 22 21 21 23 24 23 22 22 21 22 24 25 26 26 25 24 25 25 24 24 24 24 25 25 26 25 25 27 30 30 30 30 29 29 29 28 27 26 25 25 25 25 23 22 22 21 20 19 18 17 18 17 17 17 17 17 17 18 20 20 20 18 16 16 16 16 17 17 17 18 19 19 19 20 21 22 23 23 23 23 23 23 24 26
21 20 20 20 21 21 20 20 20 22 23 23 23 24 24 24 24 24 25 25 25 24 23 23 23 24 24 25 26 29 30 29 27 25 24 24 26 26 25 24 24 24 23 22 22 21 21 21 21 20 19 19 18 18 18 19 19 20 20 20 20 20 18 17 16 16 16 17 17 18 19 21 21 21 21 22 22 23 23 23 23 23 23 24 26
21 20 20 19 19 19 19 19 21 22 23 22 22 22 23 23 23 24 24 24 24 24 23 23 23 23 24 24 27 30 31 30 29 27 25 24 25 25 25 24 23 22 22 21 20 21 21 21 21 21 19 19 19 19 19 19 20 20 21 20 20 20 19 19 18 18 18 19 19 20 20 22 23 22 22 23 23 23 24 24 23 23 23 24 25
20 19 18 18 18 19 19 20 20 21 23 23 24 24 23 22 22 22 23 23 23 23 23 23 23 23 23 24 27 30 31 30 30 29 25 24 24 25 23 22 22 21 20 19 19 20 21 21 21 20 20 20 20 20 21 21 21 21 21 21 21 21 22 22 22 21 21 22 22 22 22 22 23 23 23 22 23 24 24 25 25 25 25 25 26
19 19 18 17 18 19 19 20 20 22 23 24 24 24 23 21 21 22 23 23 23 23 23 23 23 22 21 22 25 28 29 30 29 27 24 22 24 24 23 21 21 20 20 20 20 20 21 21 21 21 21 20 20 21 22 22 22 22 23 23 24 24 24 24 24 24 24 24 24 23 23 24 25 25 25 24 24 25 26 26 26 26 25 25 26
17 18 17 17 17 17 17 18 20 22 22 22 22 23 23 22 22 23 23 23 23 22 22 23 23 22 21 21 23 26 28 29 28 25 22 22 23 23 21 20 20 20 20 20 21 21 21 21 21 21 21 21 21 22 22 23 23 23 23 23 24 25 23 22 23 24 24 24 24 23 24 25 26 26 27 26 26 26 27 27 28 28 26 25 25
16 16 16 16 16 17 17 18 20 21 21 21 22 24 24 23 23 22 22 22 23 23 23 23 23 22 21 21 22 24 27 28 26 23 22 22 22 21 21 20 20 20 21 21 22 22 22 22 22 22 22 22 22 23 23 24 24 24 23 23 23 24 23 22 22 23 24 24 24 24 24 26 27 28 28 28 28 27 27 28 29 29 27 25 25
16 15 15 15 17 18 18 18 19 20 20 21 22 24 24 24 23 22 22 23 23 24 24 24 22 21 21 21 22 24 26 27 25 23 22 22 22 21 21 21 20 20 20 21 22 22 23 23 24 24 24 23 23 24 24 24 24 24 24 23 24 24 24 22 23 24 25 25 26 26 27 28 28 28 27 27 27 27 27 28 28 28 27 26 27
16 16 15 16 17 18 17 17 18 19 20 20 21 22 24 25 25 25 25 23 22 23 24 24 23 23 23 22 23 25 26 26 25 24 22 22 22 23 23 22 22 21 22 22 23 23 23 23 23 24 24 24 24 24 24 24 24 24 24 24 25 25 25 25 25 25 26 26 27 28 27 26 26 26 26 26 26 26 26 26 27 27 28 29 29
17 17 16 16 16 16 16 17 18 18 19 20 21 21 23 25 26 26 26 24 23 23 24 22 22 24 25 25 24 25 26 25 24 23 22 21 22 24 24 24 24 24 24 23 23 23 23 23 23 23 23 23 23 24 24 24 24 24 23 23 24 24 24 25 25 25 26 27 27 27 25 25 25 26 26 26 26 27 27 27 28 29 30 31 32
Wind_Direction
199 192 188 184 185 190 189 188 194 199 197 197 210 239 259 268 266 187 168 163 161 163 162 158 155 151 150 150 148 146 145 142 139 136 138 138 133 125 118 116 119 117 114 112 108 103 97 92 89 87 86 85 80 76 72 68 64 59 57 54 46 41 41 37 16 356 0 8 8 0 357 3 4 355 347 350 355 356 357 358 354 347 342 341 343
193 193 193 187 187 190 188 190 199 199 197 204 221 240 249 258 233 179 169 164 163 166 164 160 156 154 154 152 151 150 148 146 142 141 141 140 134 127 122 124 126 122 119 116 109 104 98 94 92 91 88 86 83 79 75 72 67 60 57 53 46 39 36 34 24 7 4 4 2 360 359 0 358 353 347 346 351 354 352 351 350 345 341 341 342
192 197 199 192 190 190 188 195 203 198 200 214 225 233 237 239 202 178 170 165 167 168 166 163 159 157 156 154 154 153 152 149 146 144 143 140 138 133 130 132 131 127 124 117 109 104 100 97 96 93 91 90 86 81 77 74 69 60 55 49 42 38 34 31 24 10 2 358 354 354 356 357 353 348 346 343 346 350 347 343 347 347 342 341 341
195 198 199 195 193 191 191 201 203 198 203 215 220 225 230 217 187 179 172 169 171 170 168 166 162 159 158 157 157 156 155 153 149 148 147 146 144 139 136 137 136 131 125 117 112 106 101 101 99 96 94 91 87 82 77 74 68 60 54 46 35 33 33 29 21 11 359 349 348 350 350 350 348 346 345 342 343 346 343 341 346 346 341 340 341
193 195 197 197 194 192 196 204 201 198 206 213 215 221 227 207 186 179 172 172 175 172 170 168 164 162 160 159 159 157 158 157 153 153 153 152 150 146 144 142 137 133 125 119 115 109 107 106 104 102 99 94 90 84 78 74 69 61 56 50 37 33 32 26 20 16 3 345 343 346 344 344 345 345 345 344 343 342 340 342 345 344 342 340 339
190 194 196 194 193 194 200 203 200 202 209 213 213 220 223 200 185 179 174 175 178 175 173 169 166 165 162 161 162 161 161 160 159 160 159 157 155 151 149 145 141 136 128 124 120 114 114 113 112 110 105 100 95 87 80 74 68 59 54 50 41 36 31 22 18 16 5 351 345 343 342 343 343 343 345 347 345 341 338 340 343 344 342 340 338
188 196 194 191 194 199 201 202 201 204 210 213 214 221 220 193 183 180 175 177 181 179 175 172 170 168 166 166 166 166 166 165 166 166 164 163 161 157 154 149 146 142 133 129 125 120 121 120 118 117 111 105 98 89 81 73 66 58 49 46 41 36 30 22 16 10 1 356 350 345 345 344 342 342 346 348 346 344 342 339 340 342 341 339 338
190 198 192 189 198 200 198 200 202 204 209 212 213 221 216 188 182 182 177 177 181 180 178 176 173 171 171 171 171 172 172 171 172 171 169 169 167 162 159 156 152 148 141 135 130 125 125 124 122 120 115 110 100 89 81 72 66 57 47 42 37 35 32 25 17 8 1 359 353 348 346 344 343 343 347 349 346 346 346 341 337 338 339 339 339
190 196 191 192 200 200 197 200 202 203 208 210 211 219 209 187 183 182 178 178 180 181 182 180 176 175 176 176 177 177 177 178 178 175 174 175 174 169 165 161 158 153 144 138 133 128 126 125 125 121 114 107 97 88 77 68 64 55 45 40 35 33 31 27 20 13 8 2 354 351 349 345 345 345 346 348 345 345 346 342 336 336 337 338 339
191 197 197 196 199 199 200 202 202 203 206 208 211 216 205 188 183 181 180 180 181 181 183 182 180 180 180 180 182 182 183 186 183 179 178 178 178 175 168 163 161 155 147 140 135 132 128 123 122 118 111 99 86 76 67 58 55 50 43 38 35 33 31 28 24 19 15 6 356 353 349 344 346 347 344 344 344 346 346 342 337 338 340 340 340
192 199 200 198 199 202 203 203 203 204 205 207 210 213 203 190 183 182 184 184 183 183 184 183 184 185 184 185 186 186 189 190 186 182 181 180 179 175 170 168 162 155 148 141 136 133 127 120 117 113 106 97 82 67 58 49 43 41 37 34 32 32 31 28 25 22 19 13 5 355 347 345 348 347 343 342 346 349 347 342 338 339 342 340 338
191 198 200 199 202 206 205 204 205 205 205 205 208 210 201 190 184 186 187 187 186 186 185 185 187 188 188 189 189 191 194 190 186 186 185 184 180 171 169 170 163 156 151 143 141 141 129 119 117 116 114 106 89 71 57 47 41 37 33 31 31 31 30 28 26 23 19 16 10 358 349 351 352 349 346 346 348 350 347 343 342 342 340 337 335
194 200 200 199 203 206 206 206 206 204 204 204 207 208 200 191 188 189 189 189 189 188 186 187 190 190 190 190 191 195 197 191 187 188 188 187 179 165 167 173 163 160 161 154 157 161 144 127 118 117 125 119 100 88 74 57 45 39 33 29 28 27 26 26 25 23 19 15 11 3 357 357 357 353 351 351 351 350 348 346 346 342 337 334 334
198 201 202 202 206 207 206 208 207 204 202 203 207 206 198 193 192 191 191 191 190 189 189 189 192 192 190 191 192 197 199 193 190 189 187 188 178 162 168 182 170 170 176 166 165 166 155 149 143 132 132 125 114 109 96 75 57 47 43 39 31 26 24 23 22 19 17 14 9 4 1 360 359 356 355 356 354 353 354 352 345 338 335 333 333
198 201 203 204 207 208 209 209 206 203 203 204 206 205 199 196 194 193 194 193 191 192 192 192 194 193 192 192 193 197 199 193 190 190 187 187 180 167 172 192 185 183 190 180 173 172 160 152 153 149 142 139 133 121 101 84 68 54 47 45 38 32 27 24 21 18 16 13 7 3 360 358 359 359 359 0 357 357 1 358 342 336 337 336 336
201 203 205 207 209 209 211 212 207 202 203 203 204 205 201 197 196 195 194 193 193 195 195 195 196 194 194 195 195 198 199 192 190 191 187 186 183 173 178 205 205 199 205 198 186 183 170 155 153 155 153 158 153 125 103 82 71 56 41 39 36 28 20 16 15 14 13 12 7 2 359 356 356 358 1 3 1 0 2 355 342 341 342 339 340
207 207 207 209 211 210 212 214 209 203 203 203 204 207 204 199 197 196 195 195 196 196 197 198 198 198 198 198 198 200 199 192 190 191 187 187 184 175 180 215 221 215 217 213 202 200 188 169 167 169 162 171 176 138 106 67 67 56 32 33 29 16 6 3 3 5 5 7 6 3 0 359 360 1 3 4 3 3 0 350 344 347 345 342 342
211 212 209 209 213 213 215 215 209 204 203 203 206 209 204 199 197 196 197 197 196 196 199 201 201 202 202 201 201 202 201 195 192 190 189 190 187 179 184 206 219 221 222 219 212 213 209 186 175 175 174 185 201 188 200 25 48 29 7 15 12 358 353 353 355 356 358 1 3 3 3 4 5 5 4 5 5 4 0 352 349 348 344 343 342
214 215 214 214 216 218 220 218 211 205 205 205 208 209 204 198 196 196 197 197 197 199 201 203 204 204 203 203 203 204 202 197 193 192 192 193 192 188 187 198 212 216 217 220 218 216 217 204 188 184 186 196 211 226 269 318 0 357 351 1 358 345 344 349 350 349 353 359 1 360 358 356 358 0 1 3 4 3 2 0 357 351 344 342 342
215 217 218 217 218 221 224 220 213 208 207 207 208 207 202 198 196 196 197 197 200 203 203 205 206 205 203 203 203 204 204 200 196 195 195 196 196 193 191 203 219 219 214 217 222 222 218 212 203 199 200 205 216 233 267 301 325 333 339 345 339 334 339 346 344 346 354 357 353 349 346 346 349 351 353 358 0 0 2 4 2 357 349 342 340
215 218 219 218 219 223 223 219 214 210 208 207 206 203 201 198 197 197 197 199 203 204 204 206 207 205 204 204 202 203 204 201 198 198 197 198 199 197 197 207 219 223 220 217 219 224 225 220 215 212 213 217 227 242 265 294 314 323 328 327 326 331 337 339 341 349 354 348 341 340 342 343 345 345 348 353 353 355 1 4 3 1 356 345 338
215 217 216 215 217 220 219 215 211 207 206 205 203 201 199 199 199 198 200 203 205 205 205 207 207 205 204 203 203 204 204 201 200 200 199 199 201 202 206 210 211 214 220 219 217 219 222 222 222 221 221 228 239 249 269 298 314 317 320 322 327 333 336 337 344 352 348 338 336 339 340 340 342 344 346 347 351 359 5 4 2 2 359 351 341
216 216 215 214 216 219 218 214 208 206 206 203 201 200 200 199 199 200 202 204 205 205 205 206 208 206 204 203 205 206 205 203 202 201 200 200 202 205 211 215 212 208 211 216 217 217 219 221 224 224 224 233 248 262 282 303 309 312 320 326 330 335 339 344 348 347 338 335 337 338 338 341 342 343 345 348 357 4 3 0 3 3 358 352 347
219 219 218 217 216 218 217 214 210 208 206 202 200 202 203 201 200 201 203 205 206 206 206 206 207 207 205 205 206 207 207 206 204 203 203 202 202 204 210 216 216 211 210 212 216 219 222 222 224 226 228 236 253 267 282 297 306 315 322 327 333 342 347 347 341 334 333 337 338 338 340 342 342 345 350 353 355 354 351 356 5 6 359 354 350
218 218 217 215 214 214 212 212 212 211 207 203 202 204 205 203 201 202 203 206 207 208 208 207 207 207 207 207 207 208 208 207 206 206 206 205 204 205 208 214 217 216 213 212 214 217 221 221 222 227 230 238 254 270 283 294 303 311 317 326 339 348 345 334 329 330 334 336 337 339 342 343 344 347 350 351 351 347 347 355 3 2 360 358 353
214 213 213 212 211 210 209 209 210 209 206 204 205 207 206 203 203 204 204 207 209 209 210 209 207 208 209 209 209 209 208 208 209 209 209 208 208 206 207 211 216 218 217 216 217 217 218 219 222 227 233 242 254 266 273 283 298 309 319 333 345 344 326 319 324 327 330 333 338 341 342 342 343 346 348 351 353 352 351 352 354 354 355 355 351
212 211 211 211 210 209 207 208 208 207 205 204 206 209 208 206 206 207 206 207 209 209 211 211 209 209 210 211 212 212 210 210 212 212 211 211 210 207 207 209 213 217 218 219 220 218 216 219 224 229 237 246 256 267 274 286 300 307 311 322 323 305 301 315 325 326 327 332 335 337 338 339 341 347 351 353 354 354 352 351 351 351 351 349 348
213 213 211 211 210 207 207 208 208 207 205 204 206 209 209 208 209 210 209 210 210 209 211 211 211 211 213 212 213 213 212 212 214 214 214 213 210 208 207 207 211 215 216 217 218 218 218 221 225 233 242 249 259 270 277 284 286 279 278 284 286 289 299 315 326 326 323 326 328 331 338 340 340 345 349 350 351 352 352 351 350 350 350 349 349
213 213 211 210 207 206 206 208 209 208 207 206 208 211 211 211 211 212 213 215 215 215 215 215 214 214 215 215 214 214 214 214 215 215 215 214 212 210 207 206 209 213 214 215 217 218 221 224 228 236 245 249 253 255 256 260 261 260 267 275 281 290 297 303 312 311 309 317 325 329 334 336 338 343 346 346 346 347 347 348 351 353 354 354 352
209 211 210 208 205 203 205 207 208 209 208 207 209 212 213 214 214 215 217 218 219 221 222 223 222 219 216 216 217 219 220 220 218 216 215 213 212 211 207 205 208 211 213 215 217 218 221 225 231 239 242 243 246 247 246 250 254 258 267 274 278 286 287 289 297 298 298 310 318 322 327 330 333 337 340 340 342 343 344 345 349 353 355 355 355
209 208 207 205 203 203 206 207 207 207 208 208 210 212 212 212 213 216 219 219 219 220 221 223 225 223 220 220 220 220 222 224 221 215 211 209 209 208 206 206 209 210 212 215 218 220 223 227 233 239 242 243 246 247 249 252 254 258 265 269 274 279 281 285 288 288 293 303 308 313 320 323 327 331 334 336 339 341 340 341 344 349 352 351 353
210 208 206 205 203 204 208 209 207 207 208 209 212 214 213 212 211 213 215 216 217 220 222 222 221 219 219 221 221 221 221 220 213 207 206 206 206 205 206 209 211 212 214 218 221 224 228 233 239 242 245 247 249 251 254 255 256 259 262 264 270 274 275 279 279 280 288 295 298 306 313 315 320 327 330 332 334 333 333 336 339 342 343 344 348
212 211 210 207 204 206 210 210 209 209 210 210 212 214 215 214 212 211 210 211 213 217 219 219 216 213 212 216 220 222 220 212 204 203 203 202 201 201 204 209 211 213 217 222 226 228 230 235 241 244 246 249 252 254 256 255 255 257 258 260 266 271 274 278 278 278 284 288 292 301 307 310 316 321 323 327 328 328 332 336 335 337 339 340 343
211 212 213 210 206 207 209 209 209 211 211 212 214 215 216 217 216 214 211 210 211 213 213 213 211 210 211 213 215 215 211 204 201 202 202 199 199 201 205 210 213 217 221 225 230 233 233 236 241 243 245 249 251 253 254 253 253 255 256 259 264 268 272 277 277 277 281 285 290 297 301 306 314 317 320 325 326 330 337 338 333 334 338 338 340
210 212 216 215 210 208 208 209 210 210 211 213 216 217 217 218 217 218 217 215 214 214 212 211 210 208 208 210 210 208 205 201 200 200 199 198 200 204 209 214 217 221 225 229 234 237 239 240 243 245 246 249 250 251 252 251 252 253 255 258 262 265 271 277 277 276 277 280 286 291 296 304 311 314 318 323 323 328 335 333 328 333 340 342 344
210 211 214 215 213 211 211 211 211 211 212 215 217 217 217 218 219 221 222 222 221 220 218 217 215 212 211 211 209 207 204 202 200 199 198 201 205 210 215 220 223 226 231 236 240 242 243 242 243 244 245 246 247 247 248 249 250 253 254 257 262 267 272 275 276 275 276 278 282 287 292 300 307 312 318 325 327 330 331 328 328 336 342 345 348
208 208 207 207 208 209 212 214 214 214 215 217 217 217 218 219 221 224 224 223 223 223 222 222 221 218 217 215 212 207 204 201 200 200 203 207 211 214 219 225 229 232 237 240 243 246 246 244 243 243 243 243 243 242 244 246 249 253 256 259 264 268 271 274 275 273 271 272 275 282 289 296 303 309 314 319 324 328 328 328 331 336 340 344 347
207 205 201 199 201 204 207 210 212 214 217 218 217 217 218 220 223 224 223 223 222 220 220 223 225 224 223 220 214 207 203 201 202 204 207 210 212 215 220 226 230 233 236 239 243 248 248 245 243 243 242 241 239 240 242 246 249 254 259 262 266 269 275 281 283 279 274 270 271 278 286 292 298 304 307 310 315 321 324 328 332 335 338 342 343
211 211 206 201 202 204 205 206 209 212 215 215 215 217 219 221 223 222 219 220 221 219 217 219 223 226 228 225 216 207 203 203 206 207 209 211 214 217 222 227 231 234 236 235 238 244 247 244 241 241 240 236 236 239 243 247 252 257 260 263 267 270 276 281 283 278 273 271 271 275 282 288 294 300 304 307 311 316 321 325 328 332 335 338 340
211 213 208 205 207 209 209 209 210 213 214 214 214 217 219 220 222 220 216 214 218 219 215 211 215 225 231 227 217 209 207 207 209 210 212 214 217 221 226 229 231 235 238 237 235 240 244 242 239 238 237 235 236 241 245 250 255 258 261 265 268 271 275 276 275 272 269 267 268 273 279 286 292 296 299 304 306 311 316 320 323 328 333 336 339
210 211 207 207 211 213 213 212 212 214 215 215 216 218 220 221 221 219 214 210 212 216 216 213 217 228 233 228 219 214 212 212 213 214 216 218 220 225 230 232 232 236 240 240 237 238 241 240 236 235 235 235 238 243 246 251 256 259 263 268 271 273 275 274 273 273 270 265 266 272 277 284 290 292 295 300 303 306 312 317 319 324 328 331 335
213 213 210 210 213 215 215 214 212 214 217 218 218 220 223 223 221 219 216 214 215 220 222 222 225 231 233 228 220 215 214 215 218 219 221 225 228 230 232 234 236 238 239 240 238 237 238 236 233 231 233 236 240 244 248 252 257 262 267 272 274 274 273 271 270 271 270 267 268 274 279 285 290 292 294 298 302 304 308 313 315 318 320 325 329
217 217 216 216 218 219 219 215 212 213 216 217 217 219 222 224 223 222 222 222 222 224 226 227 227 231 232 227 220 215 213 215 218 218 220 226 231 232 231 233 237 239 239 239 236 233 233 233 233 234 237 240 243 247 250 255 260 264 268 272 274 272 270 268 267 268 269 269 272 276 281 286 291 292 294 298 300 302 304 307 310 313 315 319 324
215 216 217 219 220 221 220 217 214 214 214 214 214 217 220 222 223 223 224 224 224 224 225 227 229 231 231 224 217 214 214 215 217 218 221 225 229 230 231 235 239 241 239 237 233 229 229 233 236 239 240 242 245 249 253 257 261 264 266 269 270 270 268 267 269 270 271 272 274 276 279 283 287 290 293 295 297 299 300 303 306 309 310 313 317
214 215 215 215 216 218 218 218 216 216 215 215 216 218 219 220 222 223 223 224 224 222 221 223 227 230 230 225 220 217 217 218 219 221 224 227 230 232 235 239 242 241 238 234 232 231 232 236 240 243 243 243 247 252 256 258 260 262 265 268 269 270 271 272 274 275 274 275 276 277 277 279 282 285 289 291 294 296 298 300 303 306 306 308 311
214 216 216 215 215 216 218 218 218 218 218 218 218 219 217 217 221 223 222 223 224 222 220 222 225 228 229 229 226 222 221 220 220 222 225 229 232 234 237 240 241 240 237 235 236 237 239 241 244 246 246 246 249 253 256 258 260 262 265 269 271 272 274 276 277 277 276 275 275 276 276 277 280 284 287 290 292 293 294 295 298 302 303 303 304
212 217 219 220 220 221 222 221 220 219 219 218 217 217 215 215 219 223 224 225 225 222 220 222 224 226 226 228 228 228 225 221 220 223 228 232 234 235 237 238 239 240 240 240 241 243 244 245 246 249 249 250 251 253 256 259 262 264 266 269 271 273 276 278 278 277 276 274 273 273 274 276 279 283 286 289 291 292 293 294 296 300 303 302 301
205 212 217 220 221 223 223 221 218 218 217 216 215 215 215 217 220 222 224 226 225 222 219 220 223 226 226 225 226 228 226 221 218 223 231 236 236 236 237 238 239 241 244 245 246 247 250 251 252 254 254 254 255 256 258 261 263 265 266 267 268 270 274 276 275 273 272 272 272 273 273 276 278 281 284 286 288 290 292 293 295 298 301 302 302
200 205 209 212 215 218 217 215 214 214 214 214 215 216 217 218 219 219 222 226 226 223 220 219 222 226 227 225 223 225 223 218 217 224 233 237 238 237 237 238 240 242 245 248 251 252 254 255 256 256 257 257 258 259 260 262 264 266 266 265 265 268 271 273 272 271 271 271 273 275 277 279 281 282 284 286 288 290 290 291 292 295 296 298 300
200 204 208 211 214 215 213 211 212 213 213 213 216 218 219 219 219 220 223 226 226 224 223 224 228 232 232 228 225 223 220 218 220 227 234 238 239 239 238 239 242 243 244 248 252 255 257 259 258 258 257 258 258 260 263 264 265 265 264 264 265 268 271 272 271 272 272 273 275 277 278 280 283 285 287 289 290 291 291 291 292 294 295 296 297
202 205 209 211 210 209 208 209 212 213 213 213 214 217 221 222 223 224 225 227 227 226 226 230 237 239 235 229 224 219 217 219 224 230 234 237 239 240 239 240 242 243 244 247 251 255 257 259 260 260 259 258 259 261 263 264 265 265 264 265 266 267 269 270 271 271 271 273 274 275 277 281 284 286 288 289 290 291 291 291 291 291 292 293 294
Height
1520 1525 1527 1529 1532 1534 1536 1538 1540 1541 1543 1544 1545 1545 1545 1545 1545 1545 1545 1546 1547 1549 1550 1551 1552 1553 1554 1555 1556 1556 1557 1558 1559 1560 1561 1562 1563 1563 1563 1564 1565 1565 1565 1565 1565 1565 1565 1565 1565 1564 1564 1565 1564 1564 1564 1564 1564 1563 1563 1562 1561 1560 1559 1558 1558 1557 1555 1553 1550 1548 1546 1543 1540 1538 1535 1532 1528 1524 1521 1517 1513 1509 1505 1501 1497
1519 1522 1525 1527 1530 1532 1534 1536 1538 1540 1541 1542 1543 1543 1543 1543 1544 1544 1545 1546 1547 1548 1549 1550 1551 1552 1553 1554 1555 1557 1557 1558 1559 1560 1561 1562 1562 1563 1563 1564 1565 1565 1565 1566 1566 1565 1565 1565 1565 1565 1565 1565 1565 1565 1564 1564 1564 1563 1563 1562 1561 1560 1559 1557 1557 1556 1554 1552 1550 1548 1545 1542 1539 1537 1534 1531 1527 1523 1519 1516 1513 1509 1505 1501 1496
1518 1520 1522 1525 1527 1530 1532 1534 1536 1538 1539 1541 1541 1541 1542 1542 1542 1543 1544 1545 1546 1548 1549 1550 1551 1552 1553 1554 1555 1556 1557 1558 1559 1560 1561 1561 1562 1563 1563 1564 1565 1565 1565 1566 1566 1565 1565 1565 1565 1565 1565 1565 1565 1565 1564 1564 1563 1563 1562 1561 1560 1559 1558 1557 1556 1555 1553 1551 1550 1547 1544 1541 1539 1536 1534 1530 1526 1522 1519 1516 1512 1508 1504 1499 1494
1517 1519 1521 1523 1526 1528 1531 1533 1535 1536 1538 1539 1539 1540 1540 1540 1541 1542 1543 1544 1546 1547 1548 1549 1551 1552 1553 1554 1555 1556 1557 1558 1558 1559 1560 1561 1562 1563 1563 1564 1564 1565 1565 1565 1565 1566 1565 1565 1565 1565 1565 1565 1565 1565 1564 1563 1563 1562 1562 1561 1560 1559 1558 1556 1555 1554 1553 1551 1549 1547 1544 1541 1538 1535 1533 1529 1526 1522 1518 1514 1510 1506 1502 1498 1493
1515 1517 1519 1522 1524 1527 1529 1531 1533 1535 1536 1537 1538 1538 1539 1539 1540 1541 1542 1544 1545 1546 1548 1549 1550 1551 1553 1554 1555 1556 1557 1557 1558 1559 1560 1561 1562 1562 1563 1563 1564 1565 1565 1565 1565 1566 1566 1566 1566 1565 1565 1565 1565 1565 1564 1563 1563 1562 1561 1560 1560 1559 1557 1556 1555 1553 1552 1550 1548 1546 1544 1541 1538 1535 1532 1528 1524 1521 1518 1513 1509 1504 1500 1496 1492
1513 1515 1518 1520 1523 1526 1528 1530 1532 1533 1534 1535 1536 1537 1537 1538 1539 1540 1542 1543 1544 1546 1547 1548 1550 1551 1552 1553 1554 1555 1556 1557 1558 1559 1560 1560 1561 1562 1563 1563 1564 1564 1565 1565 1565 1565 1566 1566 1566 1565 1565 1565 1565 1565 1564 1563 1562 1561 1561 1560 1559 1558 1557 1556 1555 1553 1551 1550 1548 1545 1543 1540 1537 1535 1532 1528 1523 1519 1516 1511 1508 1504 1499 1494 1491
1511 1514 1516 1519 1521 1524 1526 1528 1530 1531 1532 1534 1535 1535 1536 1537 1538 1540 1541 1542 1544 1545 1546 1548 1549 1551 1552 1553 1554 1555 1556 1557 1558 1559 1560 1560 1561 1562 1562 1563 1563 1564 1564 1565 1565 1565 1566 1566 1566 1565 1565 1565 1565 1564 1563 1563 1562 1561 1560 1559 1558 1557 1556 1555 1554 1552 1551 1549 1547 1545 1542 1540 1537 1534 1530 1527 1524 1520 1515 1509 1504 1501 1498 1494 1490
1509 1512 1515 1517 1520 1522 1524 1526 1527 1529 1531 1532 1533 1534 1534 1536 1537 1539 1540 1541 1543 1545 1546 1547 1548 1550 1551 1552 1553 1555 1555 1556 1557 1558 1559 1560 1561 1562 1562 1562 1563 1563 1564 1565 1565 1565 1565 1565 1565 1565 1565 1564 1564 1563 1563 1562 1562 1561 1560 1559 1558 1557 1556 1555 1553 1552 1550 1548 1546 1544 1542 1540 1537 1533 1529 1526 1523 1519 1515 1510 1504 1500 1497 1493 1489
1508 1511 1513 1515 1518 1520 1522 1524 1526 1528 1529 1530 1531 1532 1533 1534 1536 1537 1539 1540 1542 1544 1545 1547 1548 1549 1551 1552 1553 1554 1555 1556 1557 1558 1559 1560 1560 1561 1562 1562 1563 1563 1564 1564 1565 1565 1565 1565 1565 1565 1564 1564 1563 1563 1562 1562 1561 1561 1560 1559 1558 1556 1555 1554 1552 1551 1549 1547 1546 1544 1541 1539 1536 1532 1529 1526 1522 1518 1514 1510 1506 1501 1496 1492 1489
1506 1509 1512 1514 1517 1518 1520 1522 1524 1526 1527 1529 1530 1531 1532 1533 1535 1536 1538 1539 1541 1543 1544 1546 1547 1548 1550 1551 1552 1553 1554 1555 1556 1557 1558 1559 1560 1561 1561 1562 1562 1563 1564 1564 1565 1565 1565 1565 1565 1564 1564 1563 1563 1562 1562 1561 1561 1560 1559 1558 1557 1556 1554 1553 1552 1550 1548 1547 1545 1543 1541 1539 1536 1532 1529 1526 1523 1519 1514 1510 1505 1501 1496 1491 1487
1504 1508 1510 1512 1515 1517 1519 1521 1523 1524 1526 1527 1528 1529 1530 1532 1533 1535 1537 1538 1540 1541 1543 1545 1546 1547 1549 1550 1551 1552 1553 1554 1555 1556 1557 1558 1560 1561 1561 1562 1562 1563 1563 1564 1565 1565 1565 1565 1565 1564 1564 1563 1562 1562 1561 1561 1560 1559 1558 1557 1556 1555 1554 1552 1551 1549 1547 1546 1544 1543 1541 1538 1535 1532 1530 1526 1522 1518 1514 1510 1506 1500 1495 1490 1485
1503 1506 1509 1511 1513 1515 1517 1519 1521 1522 1524 1525 1526 1528 1529 1531 1532 1534 1535 1537 1539 1540 1542 1543 1545 1546 1548 1549 1550 1551 1552 1553 1554 1555 1557 1558 1559 1560 1561 1562 1562 1563 1563 1564 1565 1565 1565 1565 1565 1564 1564 1563 1562 1562 1561 1560 1560 1559 1558 1557 1556 1554 1553 1552 1550 1549 1547 1545 1544 1542 1540 1537 1534 1532 1529 1525 1521 1518 1515 1511 1507 1501 1497 1493 1488
1502 1504 1507 1510 1511 1513 1516 1517 1519 1520 1522 1523 1525 1526 1528 1529 1531 1532 1534 1536 1537 1539 1540 1542 1543 1545 1546 1548 1549 1550 1551 1552 1553 1555 1556 1557 1558 1560 1561 1562 1562 1563 1563 1564 1565 1565 1565 1565 1565 1564 1564 1563 1562 1562 1561 1561 1560 1559 1558 1556 1555 1554 1552 1551 1550 1548 1547 1545 1543 1542 1540 1537 1534 1531 1528 1525 1521 1518 1514 1511 1507 1502 1498 1494 1489
1500 1502 1505 1508 1509 1512 1514 1516 1517 1518 1520 1521 1523 1524 1526 1528 1529 1531 1533 1534 1536 1537 1539 1541 1542 1544 1545 1547 1548 1549 1550 1551 1552 1554 1555 1557 1558 1559 1561 1562 1562 1563 1563 1563 1564 1564 1564 1565 1565 1564 1564 1563 1562 1562 1561 1561 1560 1559 1558 1557 1555 1554 1552 1550 1549 1548 1546 1545 1543 1541 1539 1537 1534 1531 1528 1525 1521 1518 1514 1509 1506 1503 1499 1495 1491
1498 1500 1503 1505 1507 1510 1512 1514 1515 1516 1518 1519 1521 1523 1525 1526 1528 1529 1531 1533 1535 1536 1538 1539 1541 1542 1544 1545 1547 1548 1549 1550 1551 1553 1554 1556 1557 1559 1561 1562 1562 1562 1563 1563 1563 1563 1563 1563 1564 1564 1563 1562 1562 1561 1561 1560 1560 1559 1558 1557 1556 1555 1553 1551 1550 1548 1547 1545 1543 1541 1539 1537 1534 1531 1528 1525 1521 1518 1514 1510 1507 1504 1500 1495 1491
1495 1497 1500 1502 1505 1508 1510 1511 1513 1514 1516 1517 1519 1521 1522 1524 1526 1528 1530 1532 1533 1535 1536 1538 1539 1541 1542 1544 1545 1547 1548 1549 1551 1552 1553 1555 1556 1558 1560 1562 1563 1563 1562 1562 1562 1562 1562 1563 1563 1563 1562 1562 1561 1561 1560 1560 1559 1559 1558 1557 1556 1555 1553 1552 1550 1549 1547 1545 1544 1542 1539 1537 1535 1532 1528 1524 1521 1517 1513 1511 1509 1505 1500 1495 1491
1493 1495 1498 1500 1503 1505 1507 1509 1511 1512 1513 1515 1517 1519 1520 1522 1524 1526 1528 1530 1531 1533 1535 1536 1538 1540 1541 1542 1544 1545 1546 1548 1549 1551 1552 1554 1555 1557 1560 1563 1564 1563 1563 1562 1562 1562 1562 1562 1562 1562 1561 1561 1561 1560 1560 1559 1559 1559 1558 1557 1556 1555 1553 1551 1549 1548 1546 1544 1543 1541 1539 1537 1534 1531 1528 1524 1521 1517 1513 1511 1508 1504 1499 1496 1491
1490 1493 1496 1499 1501 1503 1505 1507 1508 1510 1512 1514 1515 1517 1519 1521 1523 1525 1527 1528 1530 1532 1534 1535 1537 1538 1540 1541 1543 1544 1545 1546 1548 1549 1551 1553 1554 1555 1558 1561 1563 1563 1562 1562 1562 1562 1561 1561 1561 1561 1560 1560 1560 1559 1559 1558 1558 1558 1557 1556 1556 1554 1553 1551 1549 1548 1546 1544 1542 1540 1538 1536 1533 1531 1528 1525 1521 1518 1514 1512 1508 1504 1501 1497 1492
1488 1491 1494 1497 1499 1502 1503 1505 1507 1508 1510 1512 1514 1516 1517 1519 1521 1524 1526 1527 1529 1531 1532 1534 1535 1537 1538 1540 1541 1542 1544 1545 1546 1548 1549 1551 1552 1553 1555 1557 1558 1559 1560 1560 1560 1560 1560 1560 1560 1559 1559 1559 1559 1558 1558 1557 1557 1557 1556 1556 1555 1553 1552 1550 1549 1547 1545 1543 1541 1539 1537 1535 1533 1531 1528 1525 1522 1519 1516 1512 1509 1505 1502 1498 1494
1487 1490 1492 1494 1497 1499 1501 1503 1505 1507 1509 1510 1512 1514 1516 1518 1520 1522 1524 1526 1527 1529 1531 1532 1534 1535 1537 1538 1540 1541 1542 1543 1545 1546 1547 1549 1550 1552 1554 1556 1556 1556 1557 1558 1559 1559 1559 1559 1558 1558 1558 1558 1558 1558 1557 1557 1556 1555 1555 1554 1553 1552 1551 1549 1548 1546 1544 1542 1540 1539 1538 1536 1534 1531 1529 1526 1523 1520 1516 1512 1509 1506 1502 1498 1495
1485 1487 1490 1492 1495 1497 1499 1502 1504 1505 1507 1509 1511 1513 1515 1517 1519 1521 1523 1524 1526 1527 1529 1531 1532 1534 1535 1537 1538 1539 1541 1542 1543 1545 1546 1548 1549 1550 1553 1555 1556 1556 1556 1557 1558 1558 1558 1558 1557 1557 1557 1557 1557 1557 1556 1555 1555 1554 1554 1553 1552 1551 1549 1548 1547 1545 1543 1542 1541 1539 1538 1536 1534 1531 1529 1526 1523 1520 1516 1512 1509 1506 1503 1499 1495
1483 1485 1488 1491 1493 1495 1497 1500 1502 1504 1506 1508 1510 1511 1513 1515 1518 1520 1521 1523 1524 1526 1527 1529 1531 1532 1534 1535 1537 1538 1539 1540 1541 1543 1544 1546 1547 1549 1551 1553 1554 1555 1556 1556 1557 1557 1557 1557 1556 1556 1556 1556 1556 1556 1555 1554 1553 1553 1552 1551 1551 1550 1548 1547 1546 1544 1543 1542 1541 1539 1538 1536 1534 1531 1529 1526 1523 1520 1516 1512 1510 1506 1503 1500 1497
1481 1483 1486 1488 1491 1493 1496 1498 1500 1502 1504 1506 1508 1510 1512 1514 1516 1518 1519 1521 1522 1524 1526 1527 1529 1530 1532 1533 1534 1536 1537 1538 1539 1541 1543 1544 1545 1547 1549 1551 1552 1553 1555 1555 1556 1556 1556 1556 1555 1555 1555 1555 1555 1554 1554 1553 1552 1552 1551 1550 1549 1548 1547 1546 1545 1544 1543 1542 1540 1539 1537 1535 1533 1531 1529 1526 1523 1519 1515 1512 1509 1506 1503 1500 1497
1479 1481 1484 1487 1489 1492 1494 1496 1498 1500 1502 1505 1506 1508 1510 1512 1514 1516 1518 1519 1521 1522 1524 1525 1527 1528 1530 1531 1532 1533 1535 1536 1538 1539 1541 1542 1544 1545 1547 1549 1551 1552 1553 1554 1554 1555 1555 1554 1553 1554 1554 1553 1553 1553 1552 1551 1551 1550 1549 1549 1548 1547 1546 1546 1545 1544 1543 1541 1540 1539 1537 1535 1533 1531 1528 1525 1522 1519 1517 1513 1509 1506 1502 1499 1496
1476 1478 1481 1484 1487 1490 1492 1494 1496 1498 1501 1503 1504 1506 1508 1510 1512 1514 1516 1518 1519 1520 1521 1523 1525 1526 1528 1529 1530 1532 1533 1534 1536 1538 1539 1541 1542 1543 1545 1547 1549 1550 1551 1552 1552 1552 1552 1552 1552 1553 1552 1552 1552 1552 1551 1550 1550 1549 1548 1548 1547 1546 1546 1546 1545 1544 1542 1541 1540 1538 1536 1535 1533 1531 1528 1525 1523 1521 1518 1514 1509 1506 1502 1498 1495
1473 1476 1479 1482 1485 1487 1490 1492 1494 1497 1499 1501 1503 1505 1506 1508 1510 1512 1514 1516 1517 1518 1520 1521 1523 1525 1526 1528 1529 1530 1531 1533 1535 1536 1538 1539 1541 1542 1543 1545 1547 1549 1549 1550 1550 1550 1551 1551 1551 1551 1551 1551 1551 1550 1550 1549 1548 1548 1547 1546 1546 1546 1546 1546 1545 1543 1542 1541 1539 1538 1536 1534 1532 1530 1528 1526 1524 1521 1518 1514 1510 1506 1502 1498 1495
1471 1474 1477 1479 1482 1485 1487 1490 1492 1494 1497 1499 1501 1503 1505 1507 1508 1510 1511 1513 1514 1516 1518 1519 1521 1523 1524 1526 1527 1529 1530 1532 1533 1534 1535 1537 1538 1540 1541 1542 1545 1547 1548 1548 1549 1549 1550 1550 1550 1550 1550 1550 1550 1549 1549 1548 1547 1547 1546 1546 1546 1546 1546 1545 1544 1542 1541 1540 1539 1537 1536 1534 1532 1530 1528 1526 1524 1521 1518 1514 1510 1506 1503 1499 1496
1469 1472 1475 1478 1480 1483 1485 1487 1490 1492 1494 1497 1498 1500 1502 1504 1505 1507 1509 1510 1512 1514 1516 1517 1519 1521 1522 1524 1526 1527 1529 1530 1531 1532 1533 1535 1536 1538 1539 1540 1543 1545 1546 1547 1548 1548 1548 1548 1549 1549 1549 1549 1549 1548 1548 1547 1547 1546 1546 1546 1546 1545 1544 1543 1542 1541 1540 1539 1538 1537 1535 1533 1532 1530 1528 1526 1523 1521 1517 1514 1510 1507 1504 1500 1497
1468 1471 1473 1475 1478 1481 1483 1485 1488 1490 1492 1495 1496 1498 1500 1501 1503 1505 1507 1509 1511 1513 1515 1516 1518 1519 1521 1522 1524 1525 1526 1527 1529 1530 1532 1534 1535 1536 1537 1539 1541 1543 1544 1545 1546 1547 1547 1547 1548 1548 1548 1548 1548 1548 1548 1547 1547 1546 1546 1545 1544 1544 1543 1543 1542 1541 1540 1539 1537 1536 1534 1533 1531 1530 1528 1526 1523 1520 1517 1514 1511 1508 1505 1502 1498
1466 1468 1471 1473 1476 1478 1481 1483 1485 1488 1490 1493 1495 1496 1498 1501 1503 1504 1506 1508 1510 1512 1514 1515 1517 1518 1520 1521 1522 1524 1525 1526 1528 1529 1531 1532 1534 1535 1536 1537 1539 1540 1542 1544 1545 1545 1546 1546 1546 1547 1547 1548 1547 1547 1547 1546 1546 1545 1544 1543 1543 1542 1542 1542 1541 1540 1539 1537 1536 1535 1534 1532 1530 1529 1527 1525 1522 1519 1516 1514 1511 1508 1505 1502 1498
1463 1465 1468 1471 1474 1476 1478 1481 1483 1486 1488 1491 1493 1494 1496 1499 1501 1503 1505 1507 1509 1511 1512 1514 1515 1516 1518 1520 1521 1522 1523 1525 1526 1528 1529 1531 1532 1534 1535 1536 1537 1539 1540 1542 1543 1543 1544 1544 1545 1546 1546 1546 1546 1545 1545 1544 1543 1543 1542 1542 1541 1541 1540 1540 1539 1539 1537 1536 1535 1534 1533 1531 1530 1528 1526 1523 1520 1518 1516 1513 1511 1508 1505 1502 1498
1461 1464 1467 1469 1472 1474 1477 1479 1481 1484 1486 1489 1491 1493 1494 1497 1498 1500 1503 1505 1507 1509 1510 1512 1513 1514 1516 1518 1519 1520 1522 1523 1525 1526 1527 1529 1531 1532 1533 1535 1536 1537 1539 1540 1541 1541 1542 1542 1543 1544 1544 1544 1543 1543 1542 1541 1541 1541 1540 1540 1539 1539 1538 1538 1537 1537 1536 1535 1534 1533 1531 1530 1529 1526 1524 1522 1519 1517 1515 1512 1510 1508 1505 1502 1498
1460 1463 1465 1467 1470 1473 1475 1477 1480 1482 1484 1486 1489 1490 1492 1494 1495 1497 1500 1502 1504 1506 1508 1509 1511 1512 1514 1515 1516 1518 1520 1522 1524 1525 1526 1528 1529 1531 1532 1533 1534 1535 1536 1538 1539 1539 1540 1540 1541 1542 1542 1542 1541 1541 1540 1539 1539 1539 1538 1538 1537 1537 1537 1536 1535 1535 1534 1533 1532 1531 1530 1529 1527 1525 1523 1521 1519 1517 1515 1512 1510 1507 1504 1501 1498
1459 1462 1464 1466 1468 1471 1473 1475 1478 1480 1482 1485 1486 1488 1490 1492 1493 1495 1497 1498 1500 1502 1504 1505 1507 1509 1511 1512 1514 1516 1518 1520 1522 1523 1525 1526 1527 1529 1530 1531 1532 1533 1534 1535 1536 1536 1537 1537 1538 1539 1539 1539 1539 1538 1538 1537 1537 1537 1536 1536 1535 1535 1535 1534 1534 1533 1532 1532 1531 1530 1529 1528 1526 1525 1523 1520 1518 1516 1514 1511 1509 1507 1504 1501 1498
1458 1461 1463 1465 1467 1469 1471 1474 1476 1478 1480 1482 1484 1486 1488 1489 1491 1493 1494 1495 1497 1498 1500 1502 1503 1505 1507 1509 1511 1513 1515 1518 1520 1522 1523 1524 1526 1527 1527 1528 1529 1530 1531 1533 1534 1534 1534 1535 1536 1536 1536 1536 1536 1536 1535 1535 1535 1535 1534 1534 1533 1533 1533 1532 1532 1531 1531 1530 1529 1528 1527 1526 1525 1523 1521 1519 1517 1515 1513 1511 1509 1506 1504 1501 1498
1457 1459 1461 1463 1466 1468 1470 1472 1474 1476 1478 1480 1482 1484 1486 1487 1489 1490 1492 1494 1495 1497 1498 1500 1501 1503 1504 1506 1508 1510 1512 1515 1517 1520 1521 1522 1523 1524 1525 1526 1527 1528 1529 1530 1531 1532 1532 1532 1533 1533 1533 1533 1533 1533 1533 1533 1533 1532 1532 1532 1531 1531 1531 1530 1530 1529 1528 1528 1527 1526 1525 1524 1523 1522 1520 1518 1516 1515 1512 1510 1508 1505 1503 1500 1497
1455 1457 1459 1462 1464 1467 1469 1471 1473 1475 1477 1479 1480 1482 1483 1485 1487 1488 1490 1491 1493 1495 1496 1498 1499 1501 1502 1503 1505 1507 1509 1512 1515 1517 1518 1519 1520 1521 1522 1523 1524 1526 1526 1527 1528 1529 1529 1529 1530 1530 1530 1530 1531 1531 1531 1531 1530 1530 1530 1529 1529 1528 1528 1527 1527 1526 1526 1525 1524 1524 1523 1522 1521 1520 1518 1517 1515 1513 1511 1509 1507 1504 1502 1500 1497
1453 1455 1457 1460 1462 1464 1467 1469 1471 1473 1475 1476 1478 1480 1481 1483 1484 1486 1487 1489 1490 1492 1493 1495 1496 1497 1498 1500 1502 1505 1507 1509 1511 1512 1513 1515 1516 1517 1519 1520 1522 1523 1524 1525 1526 1526 1526 1526 1527 1527 1527 1528 1528 1528 1528 1528 1528 1528 1528 1527 1527 1526 1525 1524 1524 1523 1522 1522 1522 1522 1521 1520 1519 1518 1517 1515 1514 1512 1510 1508 1506 1503 1501 1499 1497
1451 1452 1455 1457 1460 1462 1464 1466 1468 1470 1472 1474 1476 1478 1479 1480 1481 1483 1484 1486 1487 1488 1490 1492 1493 1494 1495 1497 1500 1502 1504 1506 1507 1508 1510 1511 1513 1514 1516 1518 1519 1520 1521 1523 1523 1523 1523 1523 1524 1524 1525 1525 1526 1526 1526 1526 1526 1525 1525 1525 1524 1523 1523 1522 1522 1521 1521 1520 1520 1520 1519 1519 1518 1517 1515 1514 1512 1510 1508 1506 1505 1503 1500 1498 1496
1449 1451 1453 1455 1458 1460 1461 1463 1466 1468 1469 1471 1473 1475 1476 1477 1479 1480 1482 1483 1484 1486 1488 1490 1490 1491 1492 1494 1497 1499 1500 1502 1504 1506 1507 1508 1510 1512 1513 1515 1516 1517 1518 1519 1520 1520 1520 1520 1520 1521 1522 1522 1523 1523 1523 1523 1523 1522 1522 1522 1521 1521 1520 1520 1519 1519 1519 1518 1518 1518 1517 1516 1515 1514 1513 1512 1510 1509 1507 1505 1503 1501 1499 1497 1495
1447 1449 1451 1453 1455 1457 1459 1461 1464 1466 1467 1469 1471 1472 1474 1475 1477 1478 1480 1482 1482 1483 1485 1487 1488 1488 1490 1491 1494 1496 1499 1500 1502 1504 1505 1506 1507 1509 1511 1512 1513 1514 1515 1516 1517 1516 1516 1517 1517 1518 1519 1519 1520 1520 1520 1520 1520 1520 1519 1519 1518 1518 1518 1517 1517 1516 1516 1516 1515 1515 1514 1514 1513 1512 1511 1510 1508 1507 1505 1504 1502 1500 1498 1496 1494
1445 1447 1449 1452 1453 1455 1457 1459 1461 1463 1465 1467 1468 1470 1471 1473 1474 1476 1477 1479 1480 1481 1483 1484 1485 1486 1487 1489 1492 1494 1497 1499 1500 1502 1503 1504 1505 1507 1508 1509 1510 1511 1512 1512 1513 1513 1513 1513 1514 1515 1516 1516 1517 1517 1517 1517 1517 1516 1516 1515 1515 1515 1515 1515 1514 1514 1513 1513 1513 1512 1511 1511 1510 1509 1508 1507 1506 1505 1503 1502 1500 1499 1497 1495 1493
1444 1446 1448 1450 1451 1453 1455 1457 1459 1460 1462 1464 1466 1467 1469 1470 1472 1473 1474 1476 1477 1479 1480 1482 1483 1484 1485 1487 1489 1492 1494 1495 1497 1499 1500 1502 1503 1504 1505 1506 1507 1508 1508 1509 1509 1510 1510 1510 1511 1512 1512 1513 1513 1513 1514 1514 1513 1513 1513 1512 1512 1512 1512 1512 1512 1512 1511 1511 1510 1510 1509 1508 1507 1507 1506 1504 1503 1502 1501 1500 1498 1497 1495 1494 1492
1442 1444 1446 1447 1449 1451 1453 1454 1456 1457 1459 1461 1463 1464 1466 1467 1469 1471 1472 1473 1474 1476 1478 1480 1481 1482 1483 1484 1486 1488 1490 1491 1493 1495 1497 1498 1499 1500 1502 1503 1504 1504 1505 1505 1506 1507 1507 1507 1508 1508 1509 1509 1510 1510 1510 1510 1510 1510 1510 1509 1509 1509 1509 1509 1509 1509 1509 1508 1508 1507 1506 1505 1504 1504 1503 1502 1501 1500 1498 1497 1496 1495 1493 1492 1490
1440 1441 1443 1445 1446 1448 1450 1451 1453 1455 1457 1459 1460 1461 1463 1465 1467 1468 1469 1470 1472 1473 1475 1477 1478 1479 1480 1482 1483 1485 1486 1488 1490 1492 1494 1496 1497 1498 1499 1500 1501 1501 1502 1502 1503 1504 1504 1504 1505 1505 1505 1506 1507 1507 1507 1507 1507 1507 1506 1506 1506 1506 1506 1506 1506 1505 1505 1505 1504 1504 1503 1503 1502 1501 1500 1499 1498 1497 1496 1495 1494 1492 1491 1490 1488
1437 1439 1440 1442 1444 1445 1447 1449 1451 1452 1454 1456 1457 1459 1461 1463 1464 1466 1467 1468 1469 1471 1472 1474 1475 1477 1478 1479 1481 1482 1484 1486 1488 1490 1492 1493 1495 1496 1497 1497 1498 1498 1499 1500 1501 1501 1501 1501 1501 1502 1502 1503 1503 1503 1503 1503 1503 1503 1503 1503 1503 1502 1502 1502 1502 1502 1502 1501 1501 1501 1500 1499 1498 1498 1497 1497 1496 1494 1493 1492 1491 1490 1489 1487 1486
1435 1436 1438 1440 1442 1443 1445 1446 1448 1449 1451 1453 1455 1457 1459 1460 1462 1463 1464 1465 1467 1468 1470 1471 1472 1474 1475 1477 1478 1479 1481 1483 1485 1488 1489 1491 1492 1493 1494 1494 1495 1496 1496 1497 1498 1498 1498 1498 1498 1498 1499 1499 1500 1500 1500 1500 1500 1500 1500 1499 1499 1499 1499 1499 1499 1498 1498 1497 1497 1497 1497 1496 1495 1495 1494 1493 1492 1491 1490 1489 1488 1487 1486 1484 1483
1433 1435 1437 1438 1440 1441 1443 1444 1446 1448 1449 1451 1453 1455 1456 1458 1459 1461 1462 1463 1464 1465 1467 1468 1469 1471 1472 1474 1475 1476 1478 1481 1483 1485 1487 1488 1489 1490 1491 1491 1492 1493 1493 1494 1495 1495 1495 1495 1495 1495 1495 1496 1496 1496 1496 1497 1497 1496 1496 1496 1496 1496 1496 1496 1496 1495 1494 1494 1493 1493 1493 1492 1492 1491 1491 1490 1489 1488 1487 1486 1485 1484 1482 1481 1480
1432 1434 1435 1437 1438 1439 1440 1442 1444 1445 1447 1449 1451 1452 1454 1455 1457 1458 1459 1460 1461 1463 1464 1465 1467 1468 1470 1471 1472 1474 1475 1478 1480 1482 1483 1485 1486 1487 1488 1488 1489 1490 1491 1491 1491 1491 1491 1491 1491 1491 1491 1492 1492 1492 1493 1493 1493 1492 1492 1492 1492 1492 1492 1492 1492 1492 1491 1491 1490 1490 1489 1489 1488 1488 1487 1487 1486 1485 1484 1483 1482 1481 1480 1478 1477
1431 1432 1434 1435 1436 1437 1439 1440 1442 1443 1445 1447 1448 1450 1451 1453 1454 1455 1456 1457 1459 1460 1462 1463 1464 1466 1467 1468 1470 1471 1473 1475 1477 1479 1480 1482 1483 1484 1484 1485 1486 1486 1487 1487 1487 1488 1488 1488 1487 1487 1488 1488 1488 1489 1489 1489 1489 1489 1489 1489 1488 1488 1488 1488 1488 1488 1488 1487 1487 1486 1486 1485 1485 1484 1484 1483 1482 1481 1481 1480 1479 1478 1476 1475 1474
1430 1431 1433 1433 1435 1436 1437 1439 1440 1441 1443 1444 1446 1447 1448 1450 1451 1452 1454 1455 1457 1458 1459 1461 1462 1463 1464 1465 1467 1468 1470 1472 1474 1476 1478 1479 1479 1480 1481 1482 1482 1482 1483 1483 1483 1484 1484 1484 1484 1484 1484 1484 1485 1485 1485 1485 1485 1485 1485 1485 1485 1485 1485 1485 1485 1484 1484 1484 1483 1483 1482 1482 1482 1481 1481 1480 1479 1478 1477 1476 1475 1474 1473 1472 1470